Theta_e
323 323 324 326 318 317 320 322 322 321 321 327 338 338 338 342 340 339 345 336 337 325 325 334 341 341 340 339 338 333 330 333 334 333 333 333 333 330 323 319 318 317 318 319 319 321 320 321 321
321 322 325 324 317 320 320 321 322 321 322 321 331 339 338 341 345 345 346 338 341 323 325 332 340 342 340 339 338 331 328 327 329 330 332 332 329 322 319 318 318 319 320 321 321 321 322 322 323
321 320 325 319 315 318 320 321 320 321 324 322 330 334 335 337 343 346 346 346 338 323 324 332 338 342 340 338 337 328 324 323 322 324 331 328 322 319 318 319 320 321 322 322 322 322 322 322 323
319 321 325 321 322 320 320 321 322 324 323 324 331 333 335 337 340 344 339 334 327 323 323 329 335 341 340 339 335 326 321 320 319 325 325 323 319 318 319 320 321 322 322 321 321 321 321 321 321
318 319 320 323 323 322 322 325 326 324 322 327 331 331 334 339 341 343 342 334 325 322 323 326 330 336 339 338 333 325 321 320 319 321 321 319 318 319 320 321 321 321 321 321 321 320 320 320 320
317 317 319 322 322 324 324 325 326 324 324 330 330 330 333 338 340 340 341 341 333 324 323 325 330 332 335 337 331 324 321 319 319 320 320 319 320 321 320 321 321 321 321 320 320 320 320 320 320
314 313 316 320 321 322 324 324 323 322 323 323 329 326 328 332 341 342 343 341 337 330 323 325 330 333 333 336 332 325 321 319 319 319 319 320 321 321 321 321 321 321 321 320 320 320 320 320 319
315 311 315 316 319 320 321 322 324 323 322 323 328 327 327 327 330 339 344 344 338 333 326 322 326 331 333 334 332 329 324 320 320 321 320 320 321 322 321 321 321 321 321 320 320 320 319 319 319
315 312 312 316 317 319 320 319 321 321 321 321 322 327 330 328 328 335 336 344 343 335 328 323 325 329 330 333 332 329 326 322 320 321 322 321 321 322 321 321 321 321 321 320 320 319 319 319 318
312 310 313 315 316 316 317 318 319 319 319 319 320 326 329 326 326 329 333 339 345 343 335 326 322 326 331 334 333 330 327 324 321 321 321 322 322 322 321 321 321 321 321 320 320 319 319 319 318
311 313 313 314 316 317 317 317 318 318 317 319 320 323 328 326 326 327 331 334 339 345 344 331 323 324 326 331 333 332 329 326 323 321 321 322 322 321 321 321 321 321 321 320 320 319 321 322 322
311 312 312 314 315 315 315 317 317 318 319 320 321 322 326 327 326 330 332 334 337 342 347 341 326 322 325 328 331 332 330 327 324 323 321 321 322 322 322 322 321 321 321 320 320 327 328 331 333
309 309 312 313 313 314 315 315 316 317 318 319 320 321 325 326 325 325 329 332 333 337 344 346 334 324 323 326 329 330 330 329 326 324 322 321 322 322 322 322 321 321 321 320 323 330 331 333 335
311 312 312 313 313 313 313 314 315 316 317 318 320 322 326 326 326 324 324 326 329 330 334 347 346 341 327 322 324 326 327 327 326 325 323 322 321 321 321 321 321 321 321 322 324 330 332 332 333
312 311 309 311 313 312 314 313 314 316 318 319 321 322 326 326 326 327 326 324 325 325 325 332 338 337 345 341 324 322 324 327 328 326 324 323 322 322 321 321 321 321 321 323 326 328 330 333 334
309 309 310 310 312 313 314 313 313 315 318 319 320 321 321 321 322 325 326 324 323 323 325 325 325 329 343 345 335 324 322 323 325 326 325 323 323 323 322 321 321 320 320 321 324 328 329 330 332
306 308 309 310 311 312 312 312 313 316 314 316 317 319 320 320 321 321 325 324 322 322 323 325 325 329 340 347 339 328 326 326 328 328 326 324 323 323 322 322 321 320 320 321 325 331 334 333 330
308 308 309 310 311 312 311 311 311 314 314 314 314 316 318 319 320 320 320 320 321 321 323 325 325 327 342 346 342 332 332 334 327 333 334 329 324 322 321 321 321 324 324 326 328 335 337 336 334
309 309 309 310 311 312 311 311 310 312 313 312 314 314 317 318 319 318 318 319 320 321 323 326 325 325 338 345 343 336 335 343 341 329 328 340 334 328 328 323 327 336 338 339 341 341 339 335 333
310 310 311 311 311 311 311 311 310 311 312 313 314 313 316 317 318 319 319 319 319 321 324 326 329 329 326 343 344 341 340 344 346 342 334 333 339 339 338 339 333 340 340 338 340 339 337 334 332
311 311 311 311 312 311 311 310 311 313 313 315 315 314 315 317 317 319 320 320 321 323 324 327 330 342 344 345 345 344 344 343 343 344 342 343 342 340 341 340 338 340 343 342 339 339 337 332 334
311 311 311 312 312 310 311 312 310 311 311 311 312 314 314 314 315 316 318 320 320 320 323 325 326 326 329 335 345 345 343 341 343 341 339 340 343 342 343 341 337 330 332 335 332 334 333 333 333
312 313 312 312 311 310 310 309 309 310 311 310 310 314 314 315 315 315 316 318 321 322 323 324 324 322 321 320 319 329 338 341 340 340 341 341 340 341 341 338 337 335 331 330 330 330 336 335 335
316 313 311 308 307 310 310 309 312 311 310 311 310 313 315 316 317 317 315 315 320 323 323 322 321 320 320 319 317 317 316 327 339 339 340 340 338 337 340 339 338 338 335 334 333 330 330 330 337
317 314 313 312 311 314 310 311 313 312 312 312 313 315 314 315 316 317 316 315 317 322 321 321 320 318 317 317 317 317 316 315 315 321 333 337 337 336 336 337 337 339 337 337 335 335 336 336 333
317 319 322 322 314 314 312 314 313 314 314 315 316 315 314 313 314 315 316 316 317 320 321 320 318 318 318 317 317 317 315 314 314 316 318 322 324 331 335 336 336 336 337 338 332 336 337 339 333
318 319 317 321 319 321 315 312 313 313 314 313 315 316 315 314 314 314 314 316 318 321 320 318 318 318 317 317 316 315 315 315 314 315 316 315 315 316 318 321 324 330 334 335 336 336 335 336 337
316 314 316 317 321 322 315 313 313 313 313 314 315 313 316 316 316 315 316 319 323 320 318 318 318 317 316 315 315 315 315 315 315 314 314 313 313 313 313 313 315 317 323 328 334 336 335 337 335
314 316 316 316 317 319 317 313 311 315 314 313 314 315 316 317 317 316 316 316 316 319 320 318 316 316 316 316 315 315 315 316 316 316 316 315 315 315 315 315 315 314 314 316 319 325 327 331 334
312 314 314 312 318 318 318 314 314 313 313 313 313 316 317 317 317 317 316 316 315 317 316 318 317 317 317 316 316 316 316 316 316 316 315 315 316 316 316 316 316 316 317 318 318 320 322 325 322
Wind_Speed
10 12 12 2 3 4 4 3 3 7 7 8 9 3 8 9 2 3 15 26 21 31 33 33 32 31 30 27 25 22 23 24 24 24 23 21 19 18 18 18 18 17 16 16 15 15 13 12 12
10 11 6 2 4 1 5 4 3 3 9 7 6 5 7 3 5 3 13 27 22 31 33 33 32 31 30 28 26 24 24 23 23 23 23 23 22 21 21 20 19 18 17 16 15 14 13 12 11
9 9 2 3 3 5 4 3 5 10 18 7 2 5 4 2 6 5 8 18 26 30 32 32 32 31 29 28 26 26 27 26 25 26 25 24 24 23 22 21 20 18 16 14 13 12 12 10 9
4 3 2 3 7 6 5 5 6 14 9 14 5 4 3 3 2 9 12 13 28 28 29 31 31 31 29 27 26 26 27 28 28 28 27 25 24 23 22 20 19 17 15 13 12 11 10 8 6
3 1 1 1 7 4 3 12 14 11 6 9 1 3 3 6 9 8 12 17 23 26 27 30 31 31 30 28 26 26 27 28 29 29 28 26 25 23 21 19 18 16 14 12 10 8 7 6 5
4 3 2 4 8 9 1 8 13 8 12 6 5 7 2 5 10 9 9 11 18 23 27 29 31 31 31 30 29 28 29 29 28 29 28 27 26 23 21 19 17 15 13 11 8 7 5 4 2
5 4 6 5 5 10 2 3 8 8 16 8 13 6 8 11 14 10 11 17 20 21 25 30 31 31 32 31 30 31 31 31 30 29 28 27 25 23 21 18 16 14 12 10 7 5 4 2 1
4 4 4 5 6 13 5 3 8 16 18 22 6 5 7 16 11 14 15 15 22 25 25 29 33 34 34 33 31 30 30 32 32 30 28 26 25 23 21 18 16 13 10 8 6 4 3 2 2
7 2 5 8 8 14 15 4 14 19 18 19 13 14 21 24 20 18 19 23 25 28 29 32 34 35 36 36 34 31 30 29 29 30 30 28 26 24 21 18 15 12 9 6 4 4 4 6 5
6 4 8 4 8 10 14 8 11 12 22 21 31 8 21 17 18 20 24 27 28 30 32 32 34 37 37 37 36 36 34 33 32 31 30 28 26 23 21 18 16 13 10 7 6 6 7 8 8
6 9 4 5 11 17 20 20 20 8 11 24 28 15 14 12 11 14 16 16 17 25 30 35 37 39 39 40 39 38 37 36 34 33 32 29 26 24 22 20 17 14 11 9 8 8 10 10 8
5 6 9 16 24 24 13 23 18 14 25 26 29 25 20 23 17 16 16 16 19 21 27 33 36 38 40 42 42 41 41 40 38 36 33 31 28 26 23 20 17 14 12 10 9 6 4 2 4
5 6 20 26 28 27 28 21 17 31 34 34 32 37 19 22 21 17 17 16 13 18 23 31 33 36 37 41 43 43 43 42 40 37 35 33 31 28 25 22 20 16 14 12 9 7 5 3 4
2 6 11 11 15 19 10 16 12 31 27 29 29 28 16 23 23 20 20 19 18 14 13 25 26 28 32 38 41 42 43 41 39 37 36 34 31 29 27 24 22 19 15 13 12 11 10 9 8
5 5 7 4 6 4 9 7 15 15 17 22 20 20 15 23 26 24 20 18 16 18 16 20 22 24 32 32 38 41 42 42 41 40 38 35 33 30 29 26 25 21 17 15 14 14 13 13 13
6 3 4 4 1 6 4 14 13 11 13 15 21 22 23 21 21 22 22 20 17 21 22 21 22 25 33 37 38 40 43 44 43 41 39 37 34 31 31 28 27 22 19 18 19 16 16 16 18
5 5 5 7 4 4 6 9 7 15 12 21 25 28 28 29 26 23 23 22 21 23 26 27 26 28 30 36 36 39 40 38 37 38 37 37 36 34 32 29 26 23 22 21 20 20 18 19 18
5 5 6 5 4 1 10 17 9 18 17 25 21 31 32 29 32 31 29 28 27 27 28 32 29 27 27 32 32 33 35 34 36 32 33 34 35 35 33 29 25 22 21 21 19 20 18 21 21
5 5 10 13 15 4 12 13 9 15 18 22 24 25 31 35 31 29 27 31 33 31 32 33 30 27 27 32 32 33 35 36 38 37 41 34 33 32 33 32 24 21 19 17 16 17 18 20 22
8 12 15 11 14 6 10 14 9 7 10 17 23 19 25 23 21 25 26 31 34 37 36 32 30 32 30 34 33 34 34 31 29 30 30 32 29 29 30 28 24 19 18 17 17 18 18 22 23
10 7 12 12 6 5 2 9 6 4 7 14 13 9 11 16 16 20 23 26 32 35 36 35 33 34 34 35 35 36 35 35 30 27 27 27 33 37 37 25 18 15 18 22 17 21 23 23 23
6 9 9 9 4 7 3 11 5 5 8 6 17 24 24 19 17 18 27 30 31 31 31 34 33 31 29 30 33 36 38 36 35 32 27 27 30 35 31 29 30 36 31 29 13 23 25 25 25
7 7 7 9 5 1 2 1 8 2 6 9 9 24 24 30 29 26 23 31 35 35 36 35 31 26 24 22 22 25 30 35 39 37 30 26 32 39 34 35 32 35 37 39 52 42 29 29 28
8 6 5 5 2 3 7 7 14 9 7 5 5 18 28 36 38 34 31 29 40 42 40 36 32 27 25 23 20 21 19 24 31 33 29 28 24 24 31 38 37 33 33 30 31 46 49 51 35
9 6 5 4 3 13 8 4 17 4 6 8 9 19 28 35 42 39 36 31 39 46 41 36 32 28 25 24 21 20 20 21 22 24 28 29 29 30 29 28 27 28 29 27 29 31 36 42 53
3 4 3 7 5 7 4 8 18 4 8 14 4 24 22 29 30 34 36 31 40 44 41 35 28 24 21 20 18 17 13 14 17 17 17 17 17 17 22 29 33 36 33 32 29 31 34 33 40
4 5 3 4 5 4 5 8 13 13 7 4 11 22 28 23 14 11 27 35 42 44 37 31 26 22 19 16 13 13 12 9 10 12 12 12 12 13 14 17 18 22 24 26 29 30 34 37 37
1 3 0 2 4 5 4 5 7 11 8 8 1 15 19 25 27 15 6 21 36 35 33 30 25 23 18 14 16 13 11 9 8 8 11 13 14 16 15 14 16 17 17 20 23 24 26 29 35
2 2 1 2 3 3 3 5 3 5 6 13 7 8 8 10 18 19 16 10 5 24 32 30 27 22 18 18 19 18 16 13 11 11 9 9 8 8 11 13 15 16 19 21 24 25 25 26 27
4 5 5 3 3 3 4 5 4 7 7 15 23 19 17 11 18 19 14 18 15 9 22 34 34 25 22 23 25 22 20 19 18 17 16 15 14 11 9 10 13 14 16 17 19 24 26 27 27
Wind_Direction
311 326 331 335 58 50 261 270 234 299 340 352 352 273 128 64 257 223 144 170 171 174 170 170 170 168 170 169 168 168 167 167 167 168 168 165 165 161 154 146 140 134 124 120 113 111 110 108 107
307 320 330 80 96 108 283 222 295 266 303 331 332 1 44 31 33 92 151 173 180 171 171 171 172 172 173 172 171 168 168 169 170 172 170 167 163 157 150 145 139 133 127 121 118 116 114 111 112
297 318 309 106 131 195 218 220 277 302 329 347 177 63 45 17 42 111 171 179 178 175 172 172 174 174 175 174 173 170 168 169 169 169 168 165 160 154 149 145 140 133 127 125 122 120 118 113 111
272 305 84 108 227 258 212 299 339 326 357 356 110 39 79 99 47 128 127 162 173 178 176 174 175 176 176 176 174 169 166 165 164 164 164 162 158 154 151 147 141 136 134 133 129 126 122 118 113
263 231 74 235 259 238 270 310 314 310 326 319 116 319 39 107 138 147 148 159 176 182 180 177 178 179 178 178 175 169 166 164 163 163 162 162 158 156 153 150 147 143 141 140 138 134 129 126 123
191 122 98 225 252 258 197 312 304 308 333 202 116 128 157 169 156 147 161 167 178 186 183 181 181 182 181 179 176 172 168 167 166 166 166 164 161 161 159 157 154 151 150 152 152 149 142 136 133
153 107 209 217 256 280 223 301 309 323 324 264 206 147 167 182 189 187 182 183 182 190 187 184 184 185 183 182 181 175 173 171 170 170 171 169 167 166 165 166 163 161 161 163 167 167 170 172 195
197 115 205 214 227 263 252 282 293 315 308 321 212 195 205 167 178 192 200 197 192 192 192 192 188 188 186 185 184 183 180 178 176 175 176 176 174 174 173 173 172 170 169 177 181 196 228 249 297
187 146 219 214 209 246 292 292 285 299 295 310 307 268 194 172 169 177 179 195 201 199 197 194 192 192 190 188 186 187 186 186 184 181 182 183 182 181 181 180 180 178 181 193 210 244 273 296 306
176 193 226 182 225 269 280 269 291 311 303 302 308 317 204 168 164 174 185 188 197 205 202 200 198 196 194 193 191 189 190 190 191 190 189 191 189 189 188 189 188 187 193 210 235 257 279 291 306
201 235 209 245 249 260 274 278 287 258 278 279 285 281 203 213 169 175 176 186 181 201 206 204 202 201 199 198 197 195 194 195 196 196 196 196 197 196 197 198 199 197 205 223 247 270 286 289 301
239 243 249 263 259 259 258 272 265 263 265 281 284 296 216 195 174 166 169 176 187 191 203 209 208 209 204 203 202 201 200 199 199 200 200 202 203 203 204 208 208 210 218 229 255 271 284 298 349
205 239 253 258 260 257 263 263 263 267 271 278 278 279 227 204 179 167 168 167 180 197 202 209 211 213 210 210 209 207 207 206 204 204 204 207 208 210 211 212 215 220 229 238 246 250 259 258 286
262 261 274 283 274 264 245 260 247 260 268 274 267 266 254 217 198 183 177 178 180 186 203 206 214 219 218 220 218 218 217 214 212 211 211 213 213 215 218 221 223 225 233 245 247 252 255 259 278
284 304 322 245 266 255 233 271 243 273 253 238 242 250 225 224 217 214 211 202 210 201 205 210 207 223 226 226 226 222 221 221 218 217 216 219 218 223 225 226 231 232 236 247 252 260 269 281 290
356 49 324 281 326 266 181 262 278 270 228 243 244 249 249 248 233 236 223 224 220 215 207 214 224 235 227 225 224 224 223 222 223 223 222 222 226 227 231 231 235 238 242 250 259 264 273 283 293
357 257 262 302 217 236 197 276 270 288 265 240 252 251 245 251 248 238 233 236 230 218 218 211 219 230 228 224 226 226 224 225 230 228 229 228 226 232 238 238 239 242 247 249 261 269 278 289 295
261 295 289 283 276 213 281 275 264 286 291 283 265 246 243 238 239 243 240 235 239 228 221 218 220 230 227 224 225 227 228 220 220 238 240 235 235 230 231 236 240 241 243 252 257 272 282 287 291
234 247 259 276 277 275 264 266 264 273 293 291 289 240 234 243 246 240 242 239 235 224 215 212 215 218 222 216 219 223 227 227 215 218 223 252 235 222 223 230 229 226 236 249 261 268 279 287 290
239 258 273 276 263 211 259 268 264 249 263 279 288 234 236 226 222 228 232 235 228 220 212 213 213 210 216 219 222 223 225 228 230 219 216 226 232 237 230 219 222 226 235 244 258 265 283 290 289
262 251 266 251 265 263 272 284 286 259 264 283 291 290 255 224 220 219 213 215 214 208 208 209 211 210 214 217 220 223 226 232 234 232 232 234 232 224 231 220 239 231 245 249 267 277 278 283 281
275 277 266 265 207 256 153 275 265 241 257 293 296 300 291 273 259 242 227 216 215 220 218 215 213 209 213 220 224 228 231 238 244 241 239 242 233 228 235 240 236 236 234 254 266 278 276 274 276
252 292 279 273 225 116 237 221 274 230 268 264 271 283 285 285 291 279 242 231 225 220 213 213 214 214 217 222 225 229 234 234 239 245 251 249 243 241 243 241 246 257 246 247 246 247 278 295 275
295 330 344 19 121 239 229 178 275 244 223 242 249 277 291 290 287 281 266 247 229 211 208 208 211 206 209 217 232 248 245 241 242 243 246 245 251 251 243 242 247 239 243 245 246 244 246 253 264
28 47 320 293 257 252 152 183 246 279 232 236 279 313 311 291 278 268 259 244 225 205 201 201 204 201 207 214 226 241 244 245 247 250 251 252 249 249 243 243 247 255 251 253 261 261 253 242 247
189 175 225 268 240 269 271 229 256 142 243 258 214 17 351 313 278 260 242 238 214 201 198 193 193 198 209 221 236 251 256 245 242 242 244 245 245 245 245 247 248 248 254 263 266 261 259 257 266
186 191 83 252 224 255 235 274 299 284 279 252 89 47 24 17 16 256 231 213 202 193 192 193 197 204 213 222 231 223 221 227 239 245 251 256 255 254 250 246 249 255 258 259 265 265 261 263 266
152 139 34 219 249 218 279 276 243 298 322 282 97 73 39 24 33 51 101 182 183 186 193 197 203 211 214 197 203 209 213 227 234 240 245 252 258 256 258 259 258 258 260 261 267 267 267 271 272
140 101 277 249 242 273 303 259 241 35 356 340 349 54 46 7 4 28 45 50 239 204 195 202 200 198 194 201 206 208 212 219 226 235 242 252 260 267 267 267 271 270 268 267 270 267 269 269 269
175 183 181 170 285 302 310 273 102 47 23 359 332 313 310 309 290 306 342 347 2 343 241 210 205 203 223 224 214 216 218 222 228 235 246 251 252 259 284 293 293 282 279 282 282 279 275 277 272